Cut Bank, MT

6:35 AM MST on November 15, 2019 (GMT -0700)
Cut Bank Municipal

Weather History for KCTB - September, 2019

Change the Weather History Date:

Friday, September 6, 2019

  Actual Average Record
Temperature  
Mean Temperature 58 °F 57 °F  
Max Temperature 62 °F 72 °F 91 °F (1966)
Min Temperature 53 °F 43 °F 18 °F (1929)
Degree Days  
Heating Degree Days 8 8  
Month to date heating degree days 17 45  
Since 1 July heating degree days 190 239  
Cooling Degree Days 0 1  
Month to date cooling degree days 1 6  
Year to date cooling degree days 105 159  
Growing Degree Days 8 (Base 50)    
Moisture  
Dew Point 48 °F    
Average Humidity 73    
Maximum Humidity 96    
Minimum Humidity 51    
Precipitation  
Precipitation 0.16 in 0.05 in 2.04 in (2013)
Month to date precipitation 0.16 0.27  
Year to date precipitation 8.99 8.93  
Sea Level Pressure  
Sea Level Pressure 30.14 in    
Wind  
Wind Speed 6 mph ()    
Max Wind Speed 16 mph    
Max Gust Speed 23 mph    
Visibility 8.7 miles    
Events Rain    
T = Trace of Precipitation, MM = Missing Value Source: Averaged Metar Reports

Daily Weather History Graph

Daily Weather History Graph

Search for Another Location

Airport or City:

Astronomy

Sep. 06, 2019 Rise Set
Actual Time 6:53 AM MDT 8:01 PM MDT
Civil Twilight 6:21 AM MDT 8:33 PM MDT
Nautical Twilight 5:42 AM MDT 9:12 PM MDT
Astronomical Twilight 5:00 AM MDT 9:53 PM MDT
Moon 3:43 PM MDT (9/6) No Moon Set
Length of Visible Light 14h 12m
Length of Day
13h 07m
First Quarter, 56% of the Moon is Illuminated
Sep 6
First Quarter
Sep 13
Full
Sep 21
Last Quarter
Sep 28
New
Oct 5
First Quarter

Hourly Weather History & Observations

Time (MDT) Temp. Dew Point Humidity Pressure Visibility Wind Dir Wind Speed Gust Speed Precip Events Conditions
12:56 AM 61.0 °F 43.0 °F 52% 30.19 in 10.0 mi ESE 8.1 mph - N/A   Clear
1:56 AM 59.0 °F 43.0 °F 55% 30.18 in 10.0 mi SE 8.1 mph - N/A   Partly Cloudy
2:56 AM 60.1 °F 43.0 °F 53% 30.16 in 10.0 mi ESE 9.2 mph - N/A   Clear
3:56 AM 59.0 °F 43.0 °F 55% 30.16 in 10.0 mi SSE 4.6 mph - N/A   Clear
4:56 AM 57.0 °F 43.0 °F 59% 30.16 in 10.0 mi NW 4.6 mph - N/A   Clear
5:56 AM 57.0 °F 42.1 °F 57% 30.15 in 10.0 mi ESE 6.9 mph - N/A   Clear
6:56 AM 57.0 °F 42.1 °F 57% 30.15 in 10.0 mi ESE 5.8 mph - N/A   Clear
7:56 AM 55.9 °F 43.0 °F 62% 30.16 in 10.0 mi ESE 5.8 mph - N/A   Overcast
8:56 AM 55.9 °F 46.0 °F 69% 30.15 in 10.0 mi East 6.9 mph - 0.00 in Rain Light Rain
9:56 AM 57.0 °F 45.0 °F 64% 30.16 in 10.0 mi ESE 10.4 mph - 0.00 in   Overcast
10:56 AM 57.9 °F 46.0 °F 65% 30.14 in 10.0 mi ESE 3.5 mph - N/A   Overcast
11:56 AM 59.0 °F 46.9 °F 64% 30.15 in 10.0 mi East 4.6 mph - N/A   Overcast
12:56 PM 60.1 °F 46.0 °F 60% 30.14 in 10.0 mi Calm Calm - N/A   Overcast
1:56 PM 57.9 °F 51.1 °F 78% 30.13 in 8.0 mi ENE 6.9 mph - 0.02 in Rain Light Rain
2:56 PM 57.9 °F 50.0 °F 75% 30.13 in 10.0 mi East 6.9 mph - 0.00 in   Overcast
3:56 PM 60.1 °F 50.0 °F 69% 30.11 in 10.0 mi East 3.5 mph - N/A   Overcast
4:56 PM 61.0 °F 51.1 °F 70% 30.11 in 10.0 mi Calm Calm - N/A   Overcast
5:56 PM 60.1 °F 51.1 °F 72% 30.10 in 10.0 mi East 8.1 mph - N/A   Overcast
6:56 PM 59.0 °F 50.0 °F 72% 30.11 in 10.0 mi ENE 6.9 mph - N/A   Overcast
7:56 PM 57.9 °F 50.0 °F 75% 30.12 in 10.0 mi NNE 6.9 mph - N/A   Overcast
8:25 PM 55.9 °F 51.1 °F 84% 30.15 in 8.0 mi NNE 8.1 mph - 0.01 in Rain Light Rain
8:56 PM 55.0 °F 52.0 °F 89% 30.13 in 6.0 mi NE 8.1 mph - 0.02 in Rain Light Rain
9:34 PM 55.0 °F 51.1 °F 86% 30.15 in 10.0 mi ENE 6.9 mph - 0.00 in   Overcast
9:56 PM 54.0 °F 52.0 °F 93% 30.12 in 10.0 mi ENE 9.2 mph - 0.00 in   Overcast
10:03 PM 54.0 °F 52.0 °F 93% 30.15 in 10.0 mi ENE 10.4 mph - N/A   Overcast
10:19 PM 54.0 °F 52.0 °F 93% 30.15 in 10.0 mi ENE 9.2 mph - N/A   Overcast
10:45 PM 53.1 °F 52.0 °F 96% 30.15 in 2.5 mi East 10.4 mph - 0.01 in Rain Light Rain
10:56 PM 53.1 °F 52.0 °F 96% 30.12 in 2.0 mi East 10.4 mph - 0.03 in Rain Light Rain
11:20 PM 53.1 °F 52.0 °F 96% 30.15 in 2.5 mi East 6.9 mph - 0.04 in Rain Light Rain
11:56 PM 53.1 °F 51.1 °F 93% 30.12 in 2.5 mi East 6.9 mph - 0.07 in Rain Light Rain